Location: Street
(51.1247°N, 2.7429°W)
Time: 23:47:41
(UTC+00:00)

Vanguard 3 - Visible Passes

Search period start: 05 December 2020 00:00
Search period end: 15 December 2020 00:00
Orbit: 508 x 3262 km, 33.3° (Epoch: 05 December)

Date Brightness Start Highest point End Pass type
(mag) Time Alt. Az. Time Alt. Az. Time Alt. Az.
10 Dec 9.3 18:28:38 10° SSW 18:29:32 10° S 18:30:24 10° S visible
11 Dec 9.6 17:13:16 10° SSW 17:16:02 12° S 17:18:22 10° SSE visible
12 Dec 9.4 18:10:25 10° SW 18:13:08 13° S 18:15:27 10° SSE visible
13 Dec 9.6 16:54:58 10° SW 16:59:35 16° S 17:03:08 10° SE visible
14 Dec 9.5 17:52:39 10° SW 17:56:42 15° SSW 17:59:52 10° SSE visible
